timestamp,wind_dir_avg,wind_spd_avg,wind_spd_max_dir,wind_spd_gust,battery_voltage,lat,long
2023-03-03 00:04:00+00:00,281.0,10.43,280.0,14.71,12.33,47.59359,-54.27349
2023-03-03 00:14:00+00:00,285.0,9.06,281.0,15.03,12.33,47.59359,-54.27349
2023-03-03 00:24:00+00:00,285.0,14.11,292.0,15.59,12.33,47.59359,-54.27349
2023-03-03 00:34:00+00:00,287.0,13.85,288.0,15.8,12.33,47.59359,-54.27349
2023-03-03 00:44:00+00:00,287.0,10.16,291.0,14.86,12.33,47.59359,-54.27349
2023-03-03 00:54:00+00:00,293.0,14.66,300.0,17.05,12.33,47.59359,-54.27349
2023-03-03 01:04:00+00:00,290.0,12.08,280.0,14.71,12.33,47.59359,-54.27349
2023-03-03 01:14:00+00:00,296.0,12.43,292.0,15.37,12.33,47.59359,-54.27349
2023-03-03 01:24:00+00:00,292.0,14.03,295.0,15.99,12.33,47.59359,-54.27349
2023-03-03 01:34:00+00:00,291.0,14.21,299.0,15.88,12.33,47.59359,-54.27349
2023-03-03 01:44:00+00:00,293.0,14.15,297.0,16.35,12.33,47.59359,-54.27349
2023-03-03 01:54:00+00:00,303.0,11.65,297.0,15.34,12.33,47.59359,-54.27349
2023-03-03 02:04:00+00:00,298.0,10.72,288.0,14.56,12.33,47.59359,-54.27349
2023-03-03 02:14:00+00:00,314.0,10.77,301.0,13.77,12.25,47.59359,-54.27349
2023-03-03 02:24:00+00:00,317.0,9.79,319.0,11.51,12.25,47.59359,-54.27349
2023-03-03 02:34:00+00:00,308.0,11.22,301.0,14.36,12.25,47.59359,-54.27349
2023-03-03 02:44:00+00:00,315.0,10.79,308.0,13.16,12.25,47.59359,-54.27349
2023-03-03 02:54:00+00:00,310.0,10.56,306.0,12.03,12.25,47.59359,-54.27349
2023-03-03 03:04:00+00:00,300.0,9.09,299.0,12.11,12.25,47.59359,-54.27349
2023-03-03 03:14:00+00:00,304.0,9.98,301.0,14.41,12.25,47.59359,-54.27349
2023-03-03 03:24:00+00:00,286.0,6.32,277.0,8.65,12.25,47.59359,-54.27349
2023-03-03 03:34:00+00:00,293.0,6.41,293.0,8.94,12.25,47.59359,-54.27349
2023-03-03 03:44:00+00:00,309.0,8.1,295.0,10.86,12.25,47.59359,-54.27349
2023-03-03 03:54:00+00:00,299.0,5.45,297.0,7.75,12.25,47.59359,-54.27349
2023-03-03 04:04:00+00:00,286.0,3.93,302.0,6.73,12.25,47.59359,-54.27349
2023-03-03 04:14:00+00:00,275.0,4.18,274.0,6.18,12.17,47.59359,-54.27349
2023-03-03 04:24:00+00:00,273.0,3.9,277.0,5.34,12.17,47.59359,-54.27349
2023-03-03 04:34:00+00:00,274.0,2.76,267.0,4.84,12.17,47.59359,-54.27349
2023-03-03 04:44:00+00:00,279.0,3.26,281.0,6.48,12.17,47.59359,-54.27349
2023-03-03 04:54:00+00:00,303.0,4.31,285.0,6.76,12.17,47.59359,-54.27349
2023-03-03 05:04:00+00:00,281.0,4.1,305.0,6.19,12.17,47.59359,-54.27349
2023-03-03 05:14:00+00:00,285.0,4.38,278.0,6.0,12.17,47.59359,-54.27349
2023-03-03 05:24:00+00:00,310.0,6.55,306.0,7.89,12.17,47.59359,-54.27349
2023-03-03 05:34:00+00:00,314.0,7.25,313.0,8.22,12.17,47.59359,-54.27349
2023-03-03 05:44:00+00:00,304.0,7.64,307.0,8.55,12.17,47.59359,-54.27349
2023-03-03 05:54:00+00:00,299.0,7.95,301.0,9.97,12.17,47.59359,-54.27349
2023-03-03 06:04:00+00:00,305.0,6.69,297.0,8.92,12.17,47.59359,-54.27349
2023-03-03 06:14:01+00:00,325.0,5.22,311.0,6.67,12.09,47.59359,-54.27349
2023-03-03 06:24:01+00:00,333.0,4.73,329.0,6.24,12.09,47.59359,-54.27349
2023-03-03 06:34:01+00:00,342.0,4.14,347.0,5.56,12.09,47.59359,-54.27349
2023-03-03 06:44:01+00:00,334.0,3.8,328.0,5.11,12.09,47.59359,-54.27349
2023-03-03 06:54:01+00:00,332.0,2.31,325.0,2.83,12.09,47.59359,-54.27349
2023-03-03 07:04:01+00:00,323.0,3.22,317.0,4.13,12.09,47.59359,-54.27349
2023-03-03 07:14:00+00:00,345.0,2.82,348.0,3.74,12.09,47.59359,-54.27349
2023-03-03 07:24:00+00:00,338.0,2.6,341.0,3.26,12.09,47.59359,-54.27349
2023-03-03 07:34:00+00:00,279.0,1.85,277.0,2.57,12.09,47.59359,-54.27349
2023-03-03 07:44:00+00:00,330.0,3.06,327.0,3.82,12.09,47.59359,-54.27349
2023-03-03 07:54:00+00:00,311.0,3.11,307.0,4.57,12.09,47.59359,-54.27349
2023-03-03 08:04:00+00:00,301.0,1.87,295.0,2.25,12.09,47.59359,-54.27349
2023-03-03 08:14:01+00:00,293.0,2.33,282.0,2.84,12.09,47.59359,-54.27349
2023-03-03 08:24:01+00:00,317.0,3.21,324.0,3.72,12.09,47.59359,-54.27349
2023-03-03 08:34:01+00:00,321.0,3.1,324.0,3.56,12.09,47.59359,-54.27349
2023-03-03 08:44:01+00:00,317.0,1.94,315.0,2.63,12.09,47.59359,-54.27349
2023-03-03 08:54:01+00:00,315.0,2.39,325.0,3.63,12.09,47.59359,-54.27349
2023-03-03 09:04:01+00:00,326.0,2.75,331.0,3.54,12.09,47.59359,-54.27349
2023-03-03 09:14:00+00:00,316.0,2.78,325.0,3.84,12.01,47.59359,-54.27349
2023-03-03 09:24:00+00:00,314.0,3.01,309.0,4.32,12.01,47.59359,-54.27349
2023-03-03 09:34:00+00:00,309.0,2.3,299.0,2.91,12.01,47.59359,-54.27349
2023-03-03 09:44:00+00:00,284.0,2.59,281.0,3.61,12.01,47.59359,-54.27349
2023-03-03 09:54:00+00:00,305.0,2.05,298.0,3.14,12.01,47.59359,-54.27349
2023-03-03 10:04:00+00:00,312.0,2.33,319.0,3.05,12.01,47.59359,-54.27349
2023-03-03 10:14:00+00:00,313.0,3.0,305.0,3.44,12.01,47.59359,-54.27349
2023-03-03 10:24:00+00:00,296.0,2.03,291.0,2.78,12.01,47.59359,-54.27349
2023-03-03 10:34:00+00:00,320.0,2.14,333.0,2.73,12.01,47.59359,-54.27349
2023-03-03 10:44:00+00:00,309.0,2.81,309.0,3.56,12.01,47.59359,-54.27349
2023-03-03 10:54:00+00:00,341.0,2.84,341.0,3.37,12.01,47.59359,-54.27349
2023-03-03 11:04:00+00:00,326.0,2.69,320.0,3.18,12.01,47.59359,-54.27349
2023-03-03 11:14:00+00:00,311.0,4.39,316.0,5.02,13.92,47.59359,-54.27349
2023-03-03 11:24:00+00:00,318.0,3.96,311.0,4.93,13.92,47.59359,-54.27349
2023-03-03 11:34:00+00:00,320.0,4.03,320.0,4.9,13.92,47.59359,-54.27349
2023-03-03 11:44:00+00:00,320.0,4.39,319.0,5.03,13.92,47.59359,-54.27349
2023-03-03 11:54:00+00:00,323.0,5.57,323.0,6.0,13.92,47.59359,-54.27349
2023-03-03 12:04:00+00:00,315.0,5.38,316.0,5.98,13.92,47.59359,-54.27349
2023-03-03 12:14:00+00:00,321.0,4.9,321.0,5.72,14.48,47.59359,-54.27349
2023-03-03 12:24:00+00:00,323.0,4.36,323.0,5.26,14.48,47.59359,-54.27349
2023-03-03 12:34:00+00:00,315.0,4.32,315.0,4.9,14.48,47.59359,-54.27349
2023-03-03 12:44:00+00:00,326.0,3.81,338.0,4.63,14.48,47.59359,-54.27349
2023-03-03 12:54:00+00:00,326.0,4.25,337.0,5.35,14.48,47.59359,-54.27349
2023-03-03 13:04:00+00:00,328.0,4.24,325.0,5.11,14.48,47.59359,-54.27349
2023-03-03 13:14:01+00:00,338.0,3.59,340.0,4.19,13.76,47.59359,-54.27349
2023-03-03 13:24:01+00:00,340.0,3.83,340.0,4.61,13.76,47.59359,-54.27349
2023-03-03 13:34:01+00:00,341.0,3.73,350.0,4.66,13.76,47.59359,-54.27349
2023-03-03 13:44:01+00:00,357.0,3.35,358.0,3.88,13.76,47.59359,-54.27349
2023-03-03 13:54:01+00:00,353.0,3.56,352.0,4.16,13.76,47.59359,-54.27349
2023-03-03 14:04:01+00:00,357.0,2.84,353.0,4.11,13.76,47.59359,-54.27349
2023-03-03 14:14:00+00:00,324.0,2.73,326.0,3.53,14.4,47.59359,-54.27349
2023-03-03 14:24:00+00:00,355.0,2.62,1.0,3.13,14.4,47.59359,-54.27349
2023-03-03 14:34:00+00:00,345.0,2.84,348.0,3.64,14.4,47.59359,-54.27349
2023-03-03 14:44:00+00:00,0.0,2.77,3.0,3.39,14.4,47.59359,-54.27349
2023-03-03 14:54:00+00:00,327.0,2.66,309.0,3.54,14.4,47.59359,-54.27349
2023-03-03 15:04:00+00:00,336.0,2.45,320.0,3.38,14.4,47.59359,-54.27349
2023-03-03 15:14:00+00:00,322.0,3.63,303.0,5.81,13.92,47.59359,-54.27349
2023-03-03 15:24:00+00:00,311.0,4.92,299.0,7.04,13.92,47.59359,-54.27349
2023-03-03 15:34:00+00:00,297.0,4.22,292.0,6.42,13.92,47.59359,-54.27349
2023-03-03 15:44:00+00:00,357.0,3.53,358.0,4.17,13.92,47.59359,-54.27349
2023-03-03 15:54:00+00:00,352.0,3.43,310.0,5.6,13.92,47.59359,-54.27349
2023-03-03 16:04:00+00:00,345.0,3.75,326.0,4.74,13.92,47.59359,-54.27349
2023-03-03 16:14:00+00:00,344.0,4.37,309.0,6.57,14.4,47.59359,-54.27349
2023-03-03 16:24:00+00:00,314.0,5.72,306.0,7.43,14.4,47.59359,-54.27349
2023-03-03 16:34:00+00:00,310.0,5.72,308.0,6.67,14.4,47.59359,-54.27349
2023-03-03 16:44:00+00:00,302.0,6.46,300.0,7.19,14.4,47.59359,-54.27349
2023-03-03 16:54:00+00:00,312.0,7.98,312.0,8.99,14.4,47.59359,-54.27349
2023-03-03 17:04:00+00:00,312.0,7.19,309.0,8.75,14.4,47.59359,-54.27349
2023-03-03 17:14:00+00:00,318.0,7.6,313.0,9.04,13.84,47.59359,-54.27349
2023-03-03 17:24:00+00:00,314.0,8.05,310.0,8.82,13.84,47.59359,-54.27349
2023-03-03 17:34:00+00:00,316.0,8.41,316.0,9.05,13.84,47.59359,-54.27349
2023-03-03 17:44:00+00:00,324.0,6.12,310.0,7.44,13.84,47.59359,-54.27349
2023-03-03 17:54:00+00:00,331.0,5.22,313.0,7.02,13.84,47.59359,-54.27349
2023-03-03 18:04:00+00:00,3.0,5.38,359.0,6.13,13.84,47.59359,-54.27349
2023-03-03 18:14:00+00:00,1.0,7.9,354.0,10.04,13.84,47.59359,-54.27349
2023-03-03 18:24:00+00:00,347.0,7.79,332.0,9.52,13.84,47.59359,-54.27349
2023-03-03 18:34:00+00:00,341.0,8.55,330.0,10.4,13.84,47.59359,-54.27349
2023-03-03 18:44:00+00:00,358.0,9.22,359.0,10.33,13.84,47.59359,-54.27349
2023-03-03 18:54:00+00:00,0.0,8.1,1.0,9.54,13.84,47.59359,-54.27349
2023-03-03 19:04:00+00:00,354.0,6.99,359.0,8.41,13.84,47.59359,-54.27349
2023-03-03 19:14:00+00:00,0.0,5.54,356.0,6.6,13.92,47.59359,-54.27349
2023-03-03 19:24:00+00:00,356.0,5.73,355.0,6.21,13.92,47.59359,-54.27349
2023-03-03 19:34:00+00:00,355.0,7.37,0.0,8.49,13.92,47.59359,-54.27349
2023-03-03 19:44:00+00:00,359.0,6.73,8.0,7.78,13.92,47.59359,-54.27349
2023-03-03 19:54:00+00:00,355.0,6.21,348.0,6.78,13.92,47.59359,-54.27349
2023-03-03 20:04:00+00:00,351.0,5.5,344.0,6.64,13.92,47.59359,-54.27349
2023-03-03 20:14:00+00:00,356.0,6.86,348.0,7.92,13.53,47.59359,-54.27349
2023-03-03 20:24:00+00:00,357.0,5.2,359.0,5.58,13.53,47.59359,-54.27349
2023-03-03 20:34:00+00:00,0.0,5.78,2.0,6.71,13.53,47.59359,-54.27349
2023-03-03 20:44:00+00:00,357.0,4.04,1.0,4.44,13.53,47.59359,-54.27349
2023-03-03 20:54:00+00:00,321.0,4.53,323.0,5.37,13.53,47.59359,-54.27349
2023-03-03 21:04:00+00:00,328.0,7.19,319.0,8.32,13.53,47.59359,-54.27349
2023-03-03 21:14:00+00:00,333.0,7.43,334.0,8.05,13.21,47.59359,-54.27349
2023-03-03 21:24:00+00:00,334.0,8.66,336.0,9.46,13.21,47.59359,-54.27349
2023-03-03 21:34:00+00:00,336.0,8.19,333.0,9.9,13.21,47.59359,-54.27349
2023-03-03 21:44:00+00:00,340.0,7.03,340.0,7.58,13.21,47.59359,-54.27349
2023-03-03 21:54:00+00:00,345.0,7.5,349.0,8.56,13.21,47.59359,-54.27349
2023-03-03 22:04:00+00:00,343.0,7.0,341.0,7.92,13.21,47.59359,-54.27349
2023-03-03 22:14:00+00:00,341.0,8.94,340.0,10.3,12.49,47.59359,-54.27349
2023-03-03 22:24:00+00:00,337.0,8.63,342.0,11.43,12.49,47.59359,-54.27349
2023-03-03 22:34:00+00:00,336.0,8.84,340.0,10.04,12.49,47.59359,-54.27349
2023-03-03 22:44:00+00:00,331.0,8.07,337.0,10.11,12.49,47.59359,-54.27349
2023-03-03 22:54:00+00:00,326.0,10.9,324.0,12.58,12.49,47.59359,-54.27349
2023-03-03 23:04:00+00:00,332.0,11.06,328.0,12.62,12.49,47.59359,-54.27349
2023-03-03 23:14:00+00:00,329.0,11.55,329.0,13.32,12.41,47.59359,-54.27349
2023-03-03 23:24:00+00:00,332.0,13.13,332.0,16.74,12.41,47.59359,-54.27349
2023-03-03 23:34:00+00:00,325.0,10.73,326.0,12.66,12.41,47.59359,-54.27349
2023-03-03 23:44:00+00:00,328.0,12.64,319.0,14.66,12.41,47.59359,-54.27349
2023-03-03 23:54:00+00:00,327.0,11.3,324.0,13.02,12.41,47.59359,-54.27349
